Lancaster, PA

4:01 PM EDT on July 23, 2017 (GMT -0400)
Lancaster

Weather History for KLNS - January, 2006

Change the Weather History Date:

Friday, January 27, 2006

  Actual Average Record
Temperature  
Mean Temperature 30 °F -  
Max Temperature 42 °F 35 °F 64 °F (2002)
Min Temperature 19 °F 19 °F -2 °F (1987)
Degree Days  
Heating Degree Days 34    
Moisture  
Dew Point 11 °F    
Average Humidity 46    
Maximum Humidity 69    
Minimum Humidity 29    
Precipitation  
Precipitation 0.00 in - - ()
Sea Level Pressure  
Sea Level Pressure 30.54 in    
Wind  
Wind Speed 6 mph (WNW)    
Max Wind Speed 10 mph    
Max Gust Speed -    
Visibility 10 miles    
Events      
Averages and records for this station are not official NWS values.
T = Trace of Precipitation, MM = Missing Value Source: NWS Daily Summary

Daily Weather History Graph

Daily Weather History Graph

Search for Another Location

Airport or City:

Trip Planner

Search our weather history database for the weather conditions in past years. The results will help you decide how hot, cold, wet, or windy it might be!

Date:

Astronomy

Jan. 27, 2006 Rise Set
Actual Time 7:18 AM EST 5:18 PM EST
Civil Twilight 6:49 AM EST 5:47 PM EST
Nautical Twilight 6:16 AM EST 6:19 PM EST
Astronomical Twilight 5:44 AM EST 6:51 PM EST
Moon 6:02 AM EST (1/27) 2:49 PM EST (1/27)
Length of Visible Light 10h 57m
Length of Day
9h 59m
Waning Crescent, 5% of the Moon is Illuminated
Jan 27
Waning Crescent
Jan 29
New
Feb 5
First Quarter
Feb 12
Full
Feb 21
Last Quarter

Hourly Weather History & Observations

Time (EST) Temp. Windchill Dew Point Humidity Pressure Visibility Wind Dir Wind Speed Gust Speed Precip Events Conditions
12:53 AM 25.0 °F 17.1 °F 6.1 °F 45% 30.56 in 10.0 mi WNW 6.9 mph - N/A   Clear
1:53 AM 24.1 °F 15.2 °F 6.1 °F 46% 30.56 in 10.0 mi NW 8.1 mph - N/A   Clear
2:53 AM 24.1 °F 17.0 °F 6.1 °F 46% 30.58 in 10.0 mi NNW 5.8 mph - N/A   Clear
3:53 AM 21.9 °F 17.2 °F 5.0 °F 48% 30.58 in 10.0 mi WSW 3.5 mph - N/A   Clear
4:53 AM 23.0 °F 15.8 °F 5.0 °F 46% 30.60 in 10.0 mi WSW 5.8 mph - N/A   Clear
5:53 AM 19.9 °F 11.1 °F 7.0 °F 57% 30.61 in 10.0 mi WNW 6.9 mph - N/A   Clear
6:53 AM 21.9 °F 17.2 °F 8.1 °F 55% 30.61 in 10.0 mi West 3.5 mph - N/A   Clear
7:53 AM 21.9 °F 13.4 °F 10.9 °F 63% 30.63 in 10.0 mi NW 6.9 mph - N/A   Clear
8:53 AM 27.0 °F 19.5 °F 12.0 °F 53% 30.62 in 10.0 mi WNW 6.9 mph - N/A   Clear
9:53 AM 30.9 °F 22.2 °F 12.0 °F 46% 30.62 in 10.0 mi NW 10.4 mph - N/A   Clear
10:53 AM 34.0 °F 27.2 °F 10.9 °F 38% 30.61 in 10.0 mi WNW 8.1 mph - N/A   Clear
11:53 AM 37.0 °F 31.0 °F 10.0 °F 33% 30.58 in 10.0 mi West 8.1 mph - N/A   Clear
12:53 PM 39.0 °F 33.4 °F 9.0 °F 29% 30.55 in 10.0 mi WNW 8.1 mph - N/A   Clear
1:53 PM 41.0 °F 35.2 °F 10.9 °F 29% 30.51 in 10.0 mi West 9.2 mph - N/A   Clear
2:53 PM 42.1 °F 36.1 °F 12.0 °F 29% 30.49 in 10.0 mi WNW 10.4 mph - N/A   Clear
3:53 PM 42.1 °F 36.6 °F 12.0 °F 29% 30.48 in 10.0 mi West 9.2 mph - N/A   Clear
4:53 PM - - - N/A% 30.46 in 10.0 mi SW 4.6 mph - N/A   Clear
5:53 PM 37.9 °F 35.5 °F 12.9 °F 36% 30.48 in 10.0 mi WSW 3.5 mph - 0.00 in   Clear
6:53 PM 35.1 °F 32.2 °F 16.0 °F 46% 30.48 in 10.0 mi West 3.5 mph - N/A   Unknown
7:53 PM 35.1 °F - 15.1 °F 44% 30.48 in 10.0 mi Calm Calm - N/A   Clear
8:53 PM 33.1 °F - 17.1 °F 52% 30.47 in 10.0 mi Calm Calm - N/A   Clear
9:53 PM 32.0 °F - 18.0 °F 56% 30.46 in 10.0 mi Calm Calm - N/A   Clear
10:53 PM 30.0 °F - 21.0 °F 69% 30.44 in 10.0 mi Calm Calm - N/A   Clear
11:53 PM 30.0 °F - 19.9 °F 66% 30.42 in 10.0 mi Calm Calm - N/A   Clear